When you browse on this site, cookies collect data to enhance your experience and personalize the content and advertising you see.
Visit our Privacy Policy to learn more. By continuing to use the site, you agree to this use of cookies and data.
  • In Switzerland
  • List of Countries
  • For 7 days
  • Water Temperature
  • Weather Map
  • Weather Widgets
  • user-avatar
    Login

    Hourly Weather Tysauifalu

    Today, 4 April, Saturday

    Time Temperature Precipitation Wind Pressure Humidity
    00:00 +5°C° 0 mm 3 mps 754 mmHg 81%
    01:00 +4°C° 0 mm 3 mps 755 mmHg 85%
    02:00 +4°C° 0 mm 3 mps 755 mmHg 85%
    03:00 +4°C° 0 mm 3 mps 755 mmHg 85%
    04:00 +3°C° 0 mm 3 mps 755 mmHg 85%
    05:00 +4°C° 0 mm 3 mps 756 mmHg 80%
    06:00 +5°C° 0 mm 3 mps 756 mmHg 76%
    07:00 +5°C° 0 mm 3 mps 757 mmHg 71%
    08:00 +7°C° 0 mm 4 mps 757 mmHg 63%
    09:00 +10°C° 0 mm 4 mps 757 mmHg 55%
    10:00 +12°C° 0 mm 4 mps 757 mmHg 46%
    11:00 +13°C° 0 mm 4 mps 758 mmHg 44%
    12:00 +13°C° 0 mm 4 mps 758 mmHg 41%
    13:00 +14°C° 0 mm 4 mps 758 mmHg 39%
    14:00 +14°C° 0 mm 4 mps 758 mmHg 40%
    15:00 +14°C° 0 mm 4 mps 758 mmHg 42%
    16:00 +14°C° 0 mm 4 mps 758 mmHg 43%
    17:00 +12°C° 0 mm 4 mps 758 mmHg 48%
    18:00 +10°C° 0 mm 4 mps 759 mmHg 53%
    19:00 +7°C° 0 mm 4 mps 760 mmHg 57%
    20:00 +6°C° 0 mm 4 mps 760 mmHg 60%
    21:00 +5°C° 0 mm 4 mps 761 mmHg 62%
    22:00 +5°C° 0 mm 4 mps 762 mmHg 64%
    23:00 +4°C° 0 mm 3 mps 762 mmHg 66%

    Tomorrow, 5 April, Sunday

    Time Temperature Precipitation Wind Pressure Humidity
    00:00 +4°C° 0 mm 3 mps 762 mmHg 68%
    01:00 +3°C° 0 mm 3 mps 763 mmHg 71%
    02:00 +3°C° 0 mm 3 mps 763 mmHg 72%
    03:00 +4°C° 0 mm 2 mps 763 mmHg 74%
    04:00 +3°C° 0 mm 2 mps 763 mmHg 76%
    05:00 +4°C° 0 mm 2 mps 763 mmHg 73%
    06:00 +5°C° 0 mm 2 mps 763 mmHg 71%
    07:00 +6°C° 0 mm 2 mps 764 mmHg 69%
    08:00 +8°C° 0 mm 2 mps 764 mmHg 62%
    09:00 +10°C° 0 mm 2 mps 764 mmHg 54%
    10:00 +13°C° 0 mm 1 mps 764 mmHg 47%
    11:00 +14°C° 0 mm 1 mps 764 mmHg 44%
    12:00 +15°C° 0 mm 1 mps 763 mmHg 42%
    13:00 +16°C° 0 mm 1 mps 763 mmHg 39%
    14:00 +16°C° 0 mm 1 mps 763 mmHg 39%
    15:00 +16°C° 0 mm 1 mps 763 mmHg 40%
    16:00 +16°C° 0 mm 1 mps 762 mmHg 41%
    17:00 +14°C° 0 mm 1 mps 763 mmHg 46%
    18:00 +12°C° 0 mm 2 mps 763 mmHg 52%
    19:00 +10°C° 0 mm 2 mps 764 mmHg 57%
    20:00 +9°C° 0 mm 2 mps 764 mmHg 59%
    21:00 +8°C° 0 mm 2 mps 764 mmHg 61%
    22:00 +7°C° 0 mm 2 mps 765 mmHg 63%
    23:00 +7°C° 0 mm 2 mps 765 mmHg 63%

    Day after tomorrow, 6 April, Monday

    Time Temperature Precipitation Wind Pressure Humidity
    00:00 +6°C° 0 mm 2 mps 765 mmHg 63%
    01:00 +6°C° 0 mm 2 mps 765 mmHg 63%
    02:00 +5°C° 0 mm 2 mps 765 mmHg 64%
    03:00 +5°C° 0 mm 2 mps 765 mmHg 66%
    04:00 +5°C° 0 mm 1 mps 766 mmHg 67%
    05:00 +6°C° 0 mm 1 mps 766 mmHg 65%
    06:00 +7°C° 0 mm 1 mps 766 mmHg 62%
    07:00 +8°C° 0 mm 1 mps 766 mmHg 60%
    08:00 +10°C° 0 mm 1 mps 766 mmHg 55%
    09:00 +10°C° 0 mm 2 mps 766 mmHg 49%
    10:00 +13°C° 0 mm 2 mps 766 mmHg 44%
    11:00 +14°C° 0 mm 2 mps 765 mmHg 41%
    12:00 +15°C° 0 mm 2 mps 765 mmHg 39%
    13:00 +16°C° 0 mm 2 mps 765 mmHg 36%
    14:00 +16°C° 0 mm 2 mps 764 mmHg 37%
    15:00 +16°C° 0 mm 2 mps 764 mmHg 37%
    16:00 +16°C° 0 mm 2 mps 764 mmHg 37%
    17:00 +14°C° 0 mm 2 mps 764 mmHg 42%
    18:00 +12°C° 0 mm 1 mps 764 mmHg 46%
    19:00 +10°C° 0 mm 1 mps 764 mmHg 51%
    20:00 +10°C° 0 mm 1 mps 765 mmHg 52%
    21:00 +9°C° 0 mm 1 mps 765 mmHg 54%
    22:00 +8°C° 0 mm 1 mps 765 mmHg 55%
    23:00 +8°C° 0 mm 1 mps 765 mmHg 56%

    7 April, Tuesday

    Time Temperature Precipitation Wind Pressure Humidity
    00:00 +8°C° 0 mm 1 mps 765 mmHg 57%
    01:00 +7°C° 0 mm 1 mps 766 mmHg 58%
    02:00 +7°C° 0 mm 1 mps 766 mmHg 57%
    03:00 +6°C° 0 mm 1 mps 766 mmHg 57%
    04:00 +6°C° 0 mm 1 mps 766 mmHg 56%
    05:00 +7°C° 0 mm 1 mps 766 mmHg 54%
    06:00 +8°C° 0 mm 1 mps 766 mmHg 53%
    07:00 +9°C° 0 mm 1 mps 766 mmHg 51%
    08:00 +11°C° 0 mm 1 mps 766 mmHg 46%
    09:00 +13°C° 0 mm 1 mps 766 mmHg 41%
    10:00 +14°C° 0 mm 1 mps 765 mmHg 36%
    11:00 +16°C° 0 mm 1 mps 765 mmHg 34%
    12:00 +18°C° 0 mm 1 mps 765 mmHg 33%
    13:00 +19°C° 0 mm 1 mps 764 mmHg 32%
    14:00 +19°C° 0 mm 1 mps 764 mmHg 33%
    15:00 +19°C° 0 mm 1 mps 764 mmHg 34%
    16:00 +18°C° 0 mm 1 mps 763 mmHg 35%
    17:00 +15°C° 0 mm 1 mps 763 mmHg 40%
    18:00 +13°C° 0 mm 1 mps 764 mmHg 44%
    19:00 +12°C° 0 mm 1 mps 764 mmHg 48%
    20:00 +11°C° 0 mm 1 mps 764 mmHg 50%
    21:00 +10°C° 0 mm 1 mps 764 mmHg 52%
    22:00 +10°C° 0 mm 1 mps 764 mmHg 54%
    23:00 +9°C° 0 mm 1 mps 764 mmHg 56%

    8 April, Wednesday

    Time Temperature Precipitation Wind Pressure Humidity
    00:00 +9°C° 0 mm 1 mps 764 mmHg 58%
    01:00 +8°C° 0 mm 1 mps 764 mmHg 61%
    02:00 +8°C° 0 mm 1 mps 764 mmHg 62%
    03:00 +7°C° 0 mm 1 mps 764 mmHg 64%
    04:00 +7°C° 0 mm 1 mps 764 mmHg 66%
    05:00 +8°C° 0 mm 1 mps 764 mmHg 64%
    06:00 +9°C° 0 mm 1 mps 764 mmHg 62%
    07:00 +10°C° 0 mm 1 mps 764 mmHg 60%
    08:00 +12°C° 0 mm 1 mps 764 mmHg 55%
    09:00 +14°C° 0 mm 1 mps 764 mmHg 50%
    10:00 +16°C° 0 mm 1 mps 763 mmHg 45%
    11:00 +18°C° 0 mm 1 mps 763 mmHg 42%
    12:00 +18°C° 0 mm 1 mps 763 mmHg 39%
    13:00 +19°C° 0 mm 1 mps 762 mmHg 36%
    14:00 +19°C° 0 mm 1 mps 762 mmHg 36%
    15:00 +19°C° 0 mm 1 mps 761 mmHg 37%
    16:00 +19°C° 0 mm 1 mps 761 mmHg 37%
    17:00 +16°C° 0 mm 1 mps 761 mmHg 42%
    18:00 +14°C° 0 mm 1 mps 761 mmHg 47%
    19:00 +12°C° 0 mm 1 mps 761 mmHg 52%
    20:00 +12°C° 0 mm 1 mps 761 mmHg 54%
    21:00 +11°C° 0 mm 1 mps 762 mmHg 57%
    22:00 +9°C° 0 mm 2 mps 762 mmHg 59%
    23:00 +8°C° 0 mm 2 mps 762 mmHg 60%

    9 April, Thursday

    Time Temperature Precipitation Wind Pressure Humidity
    00:00 +9°C° 0 mm 1 mps 762 mmHg 62%
    01:00 +8°C° 0 mm 1 mps 761 mmHg 63%
    02:00 +8°C° 0 mm 1 mps 761 mmHg 64%
    03:00 +8°C° 0 mm 1 mps 761 mmHg 65%
    04:00 +7°C° 0 mm 1 mps 761 mmHg 66%
    05:00 +9°C° 0 mm 1 mps 761 mmHg 64%
    06:00 +10°C° 0 mm 1 mps 761 mmHg 62%
    07:00 +11°C° 0 mm 1 mps 761 mmHg 60%
    08:00 +13°C° 0 mm 1 mps 761 mmHg 56%
    09:00 +15°C° 0 mm 1 mps 761 mmHg 51%
    10:00 +18°C° 0 mm 1 mps 760 mmHg 47%
    11:00 +19°C° 0 mm 1 mps 760 mmHg 44%
    12:00 +20°C° 0 mm 1 mps 760 mmHg 41%
    13:00 +21°C° 0 mm 1 mps 760 mmHg 38%
    14:00 +21°C° 0 mm 1 mps 759 mmHg 39%
    15:00 +21°C° 0 mm 1 mps 759 mmHg 39%
    16:00 +20°C° 0 mm 1 mps 759 mmHg 40%
    17:00 +18°C° 0 mm 1 mps 759 mmHg 44%
    18:00 +15°C° 0 mm 1 mps 759 mmHg 48%
    19:00 +14°C° 0 mm 1 mps 759 mmHg 52%
    20:00 +13°C° 0 mm 1 mps 759 mmHg 55%
    21:00 +12°C° 0 mm 1 mps 759 mmHg 58%
    22:00 +11°C° 0 mm 1 mps 759 mmHg 62%
    23:00 +11°C° 0 mm 1 mps 759 mmHg 64%
    Show more